FDX1293 KRST-KMEM

Flight info

Callsign FDX1293
Flight time 1h 31m
Altitude 39000
Route ALO TWAIN WHOLL BRBBQ3
Aircraft B752/M-VGDW/C

Departure

Time 2026-05-06 17:12
Airport Rochester International Airport (KRST)

Arrival

Time 2026-05-06 18:43
Airport Memphis International Airport (KMEM)
Time Latitude Longitude Altitude Speed Heading
2026-05-06 16:53 43.90827 -92.48829 1299 ft 0 kts 94°
2026-05-06 17:04 43.90827 -92.48831 1298 ft 1 kts 94°
2026-05-06 17:04 43.90828 -92.48851 1299 ft 2 kts 94°
2026-05-06 17:04 43.90830 -92.48872 1299 ft 2 kts 92°
2026-05-06 17:05 43.90827 -92.48892 1299 ft 2 kts 69°
2026-05-06 17:05 43.90825 -92.48912 1299 ft 2 kts 97°
2026-05-06 17:05 43.90829 -92.48932 1299 ft 2 kts 117°
2026-05-06 17:05 43.90834 -92.48943 1299 ft 0 kts 131°
2026-05-06 17:06 43.90838 -92.48949 1299 ft 0 kts 133°
2026-05-06 17:08 43.90831 -92.48940 1299 ft 4 kts 133°
2026-05-06 17:08 43.90791 -92.48878 1299 ft 13 kts 131°
2026-05-06 17:08 43.90719 -92.48768 1299 ft 15 kts 131°
2026-05-06 17:08 43.90655 -92.48669 1299 ft 11 kts 134°
2026-05-06 17:09 43.90607 -92.48679 1299 ft 6 kts 220°
2026-05-06 17:09 43.90569 -92.48698 1300 ft 6 kts 163°
2026-05-06 17:09 43.90526 -92.48651 1300 ft 9 kts 133°
2026-05-06 17:09 43.90477 -92.48578 1300 ft 10 kts 132°
2026-05-06 17:10 43.90425 -92.48546 1300 ft 7 kts 194°
2026-05-06 17:10 43.90401 -92.48593 1300 ft 6 kts 256°
2026-05-06 17:10 43.90387 -92.48670 1301 ft 8 kts 259°
2026-05-06 17:10 43.90402 -92.48739 1301 ft 6 kts 306°
2026-05-06 17:11 43.90418 -92.48766 1301 ft 2 kts 311°
2026-05-06 17:11 43.90528 -92.48937 1302 ft 56 kts 311°
2026-05-06 17:11 43.90957 -92.49592 1300 ft 126 kts 311°
2026-05-06 17:11 43.91636 -92.50634 1623 ft 160 kts 311°
2026-05-06 17:12 43.92433 -92.51839 2331 ft 180 kts 312°
2026-05-06 17:12 43.93292 -92.53133 3211 ft 192 kts 312°
2026-05-06 17:12 43.94285 -92.54619 3634 ft 230 kts 312°
2026-05-06 17:12 43.95438 -92.56375 4261 ft 257 kts 312°
2026-05-06 17:13 43.96534 -92.58135 5671 ft 247 kts 303°
2026-05-06 17:13 43.97096 -92.60391 6606 ft 257 kts 273°
2026-05-06 17:13 43.96724 -92.62807 7670 ft 266 kts 245°
2026-05-06 17:13 43.95501 -92.64741 8659 ft 279 kts 217°
2026-05-06 17:14 43.93684 -92.65706 9606 ft 291 kts 189°
2026-05-06 17:14 43.91643 -92.65699 10514 ft 300 kts 179°
2026-05-06 17:14 43.89507 -92.65479 11019 ft 321 kts 175°
2026-05-06 17:14 43.87242 -92.64996 11520 ft 341 kts 173°
2026-05-06 17:15 43.84829 -92.64498 12069 ft 356 kts 174°
2026-05-06 17:15 43.82384 -92.64007 12975 ft 360 kts 175°
2026-05-06 17:15 43.79874 -92.63511 13845 ft 365 kts 175°
2026-05-06 17:15 43.77370 -92.63020 14685 ft 370 kts 175°
2026-05-06 17:16 43.74831 -92.62525 15566 ft 373 kts 176°
2026-05-06 17:16 43.72237 -92.62022 16391 ft 378 kts 176°
2026-05-06 17:16 43.69642 -92.61520 17235 ft 381 kts 176°
2026-05-06 17:16 43.67022 -92.61012 18044 ft 384 kts 177°
2026-05-06 17:17 43.64369 -92.60501 18795 ft 388 kts 177°
2026-05-06 17:17 43.61717 -92.59988 19603 ft 390 kts 178°
2026-05-06 17:17 43.59017 -92.59469 20323 ft 394 kts 178°
2026-05-06 17:17 43.56280 -92.58941 21085 ft 396 kts 178°
2026-05-06 17:18 43.53579 -92.58422 21752 ft 400 kts 179°
2026-05-06 17:18 43.50815 -92.57892 22440 ft 403 kts 179°
2026-05-06 17:18 43.48005 -92.57352 23044 ft 407 kts 180°
2026-05-06 17:18 43.45231 -92.56818 23793 ft 406 kts 180°
2026-05-06 17:19 43.42433 -92.56284 24349 ft 411 kts 180°
2026-05-06 17:19 43.39582 -92.55738 24938 ft 413 kts 181°
2026-05-06 17:19 43.36724 -92.55192 25437 ft 418 kts 181°
2026-05-06 17:19 43.33860 -92.54644 26034 ft 419 kts 181°
2026-05-06 17:20 43.30979 -92.54095 26543 ft 422 kts 181°
2026-05-06 17:20 43.28062 -92.53539 27069 ft 424 kts 181°
2026-05-06 17:20 43.25161 -92.52986 27512 ft 427 kts 182°
2026-05-06 17:20 43.22201 -92.52421 28074 ft 427 kts 182°
2026-05-06 17:21 43.19246 -92.51860 28485 ft 431 kts 182°
2026-05-06 17:21 43.16293 -92.51299 29013 ft 432 kts 183°
2026-05-06 17:21 43.13303 -92.50732 29430 ft 435 kts 183°
2026-05-06 17:21 43.10325 -92.50168 29781 ft 439 kts 183°
2026-05-06 17:22 43.07302 -92.49595 30248 ft 439 kts 184°
2026-05-06 17:22 43.04269 -92.49023 30502 ft 444 kts 183°
2026-05-06 17:22 43.01199 -92.48444 30807 ft 447 kts 183°
2026-05-06 17:22 42.98112 -92.47862 31146 ft 449 kts 183°
2026-05-06 17:23 42.95054 -92.47285 31423 ft 453 kts 183°
2026-05-06 17:23 42.91925 -92.46697 31779 ft 453 kts 182°
2026-05-06 17:23 42.88755 -92.46100 32033 ft 458 kts 182°
2026-05-06 17:23 42.85595 -92.45506 32334 ft 460 kts 182°
2026-05-06 17:24 42.82465 -92.44913 32795 ft 457 kts 182°
2026-05-06 17:24 42.79295 -92.44321 33023 ft 461 kts 182°
2026-05-06 17:24 42.76140 -92.43726 33437 ft 459 kts 182°
2026-05-06 17:24 42.72929 -92.43124 33867 ft 459 kts 182°
2026-05-06 17:25 42.69792 -92.42539 34192 ft 460 kts 181°
2026-05-06 17:25 42.66639 -92.41947 34620 ft 458 kts 182°
2026-05-06 17:25 42.63448 -92.41352 34932 ft 460 kts 181°
2026-05-06 17:25 42.60291 -92.40762 35360 ft 457 kts 181°
2026-05-06 17:26 42.57158 -92.40177 35617 ft 460 kts 181°
2026-05-06 17:26 42.53991 -92.39289 35882 ft 469 kts 175°
2026-05-06 17:26 42.50835 -92.38193 36306 ft 466 kts 175°
2026-05-06 17:26 42.47702 -92.37128 36436 ft 470 kts 175°
2026-05-06 17:27 42.44534 -92.36037 36857 ft 466 kts 175°
2026-05-06 17:27 42.41399 -92.34961 37075 ft 468 kts 175°
2026-05-06 17:27 42.38240 -92.33874 37369 ft 466 kts 175°
2026-05-06 17:27 42.35089 -92.32789 37544 ft 469 kts 175°
2026-05-06 17:28 42.31943 -92.31708 37779 ft 468 kts 175°
2026-05-06 17:28 42.28794 -92.30623 38094 ft 466 kts 175°
2026-05-06 17:28 42.25661 -92.29546 38369 ft 465 kts 175°
2026-05-06 17:28 42.22516 -92.28468 38553 ft 466 kts 175°
2026-05-06 17:29 42.19333 -92.27377 38748 ft 467 kts 175°
2026-05-06 17:29 42.16196 -92.26302 38991 ft 466 kts 175°
2026-05-06 17:29 42.13077 -92.25232 39064 ft 462 kts 175°
2026-05-06 17:30 42.06878 -92.23115 39059 ft 463 kts 175°
2026-05-06 17:30 42.00622 -92.20981 39067 ft 463 kts 175°
2026-05-06 17:31 41.94376 -92.18855 39058 ft 464 kts 175°
2026-05-06 17:31 41.88137 -92.16736 39074 ft 464 kts 176°
2026-05-06 17:32 41.81897 -92.14619 39064 ft 463 kts 176°
2026-05-06 17:32 41.75677 -92.12515 39072 ft 463 kts 176°
2026-05-06 17:33 41.69441 -92.10408 39068 ft 460 kts 176°
2026-05-06 17:33 41.63283 -92.08335 39073 ft 462 kts 176°
2026-05-06 17:34 41.57038 -92.06234 39066 ft 461 kts 177°
2026-05-06 17:34 41.50819 -92.04147 39071 ft 461 kts 176°
2026-05-06 17:35 41.44597 -92.02062 39082 ft 461 kts 177°
2026-05-06 17:35 41.38369 -91.99982 39094 ft 462 kts 177°
2026-05-06 17:36 41.29073 -91.96879 39085 ft 460 kts 177°
2026-05-06 17:36 41.22883 -91.94820 39081 ft 458 kts 177°
2026-05-06 17:37 41.16673 -91.92758 39087 ft 459 kts 178°
2026-05-06 17:37 41.10505 -91.90713 39079 ft 456 kts 178°
2026-05-06 17:38 41.04361 -91.88683 39081 ft 457 kts 178°
2026-05-06 17:38 40.98192 -91.86649 39087 ft 461 kts 178°
2026-05-06 17:39 40.91986 -91.84602 39087 ft 461 kts 178°
2026-05-06 17:39 40.85774 -91.82556 39084 ft 456 kts 179°
2026-05-06 17:40 40.79568 -91.80522 39086 ft 459 kts 178°
2026-05-06 17:40 40.73376 -91.78492 39092 ft 458 kts 179°
2026-05-06 17:41 40.67211 -91.76475 39093 ft 454 kts 179°
2026-05-06 17:41 40.61247 -91.74534 39088 ft 458 kts 179°
2026-05-06 17:42 40.55082 -91.72524 39091 ft 456 kts 179°
2026-05-06 17:42 40.48918 -91.70520 39093 ft 457 kts 179°
2026-05-06 17:43 40.42748 -91.68518 39086 ft 458 kts 180°
2026-05-06 17:43 40.36582 -91.66521 39092 ft 457 kts 180°
2026-05-06 17:44 40.30429 -91.64528 39081 ft 452 kts 180°
2026-05-06 17:44 40.24332 -91.62564 39075 ft 453 kts 180°
2026-05-06 17:45 40.18178 -91.60584 39087 ft 457 kts 180°
2026-05-06 17:45 40.12037 -91.58606 39069 ft 452 kts 180°
2026-05-06 17:46 40.05946 -91.56652 39082 ft 451 kts 181°
2026-05-06 17:46 39.99868 -91.54707 39087 ft 453 kts 181°
2026-05-06 17:47 39.93754 -91.52753 39091 ft 453 kts 181°
2026-05-06 17:47 39.87658 -91.50806 39088 ft 451 kts 181°
2026-05-06 17:48 39.81546 -91.48860 39115 ft 451 kts 181°
2026-05-06 17:48 39.75519 -91.46947 39110 ft 454 kts 181°
2026-05-06 17:49 39.69375 -91.44988 39114 ft 453 kts 180°
2026-05-06 17:49 39.66333 -91.44006 39098 ft 440 kts 186°
2026-05-06 17:49 39.63385 -91.43619 39126 ft 418 kts 195°
2026-05-06 17:50 39.57593 -91.43653 39087 ft 416 kts 195°
2026-05-06 17:50 39.51776 -91.43527 39093 ft 421 kts 194°
2026-05-06 17:51 39.45901 -91.43320 39090 ft 423 kts 194°
2026-05-06 17:51 39.40032 -91.43079 39086 ft 422 kts 195°
2026-05-06 17:52 39.34209 -91.42828 39090 ft 417 kts 194°
2026-05-06 17:52 39.28426 -91.42571 39084 ft 413 kts 195°
2026-05-06 17:53 39.22668 -91.42324 39085 ft 416 kts 195°
2026-05-06 17:53 39.16885 -91.42070 39084 ft 418 kts 195°
2026-05-06 17:54 39.11118 -91.41812 39086 ft 415 kts 195°
2026-05-06 17:54 39.05327 -91.41557 39085 ft 416 kts 195°
2026-05-06 17:55 38.99564 -91.41305 39083 ft 415 kts 195°
2026-05-06 17:55 38.93824 -91.41050 39096 ft 411 kts 195°
2026-05-06 17:56 38.88117 -91.40802 39086 ft 413 kts 195°
2026-05-06 17:56 38.82293 -91.40552 39090 ft 418 kts 195°
2026-05-06 17:57 38.76575 -91.40289 39087 ft 407 kts 196°
2026-05-06 17:57 38.70855 -91.40051 39103 ft 414 kts 195°
2026-05-06 17:58 38.65126 -91.39799 39082 ft 414 kts 195°
2026-05-06 17:58 38.59409 -91.39546 39097 ft 409 kts 196°
2026-05-06 17:59 38.53740 -91.39304 39093 ft 411 kts 196°
2026-05-06 17:59 38.48016 -91.39056 39088 ft 411 kts 195°
2026-05-06 18:00 38.42284 -91.38808 39091 ft 412 kts 195°
2026-05-06 18:00 38.36618 -91.38560 39092 ft 409 kts 196°
2026-05-06 18:01 38.30931 -91.38316 39086 ft 410 kts 196°
2026-05-06 18:01 38.25220 -91.38069 39085 ft 410 kts 196°
2026-05-06 18:02 38.19566 -91.37823 39090 ft 406 kts 196°
2026-05-06 18:02 38.13883 -91.37586 39081 ft 411 kts 196°
2026-05-06 18:03 38.08213 -91.37336 39086 ft 406 kts 196°
2026-05-06 18:03 38.02586 -91.37096 39084 ft 405 kts 197°
2026-05-06 18:04 37.96949 -91.36861 39087 ft 408 kts 196°
2026-05-06 18:04 37.91312 -91.36613 39071 ft 404 kts 197°
2026-05-06 18:05 37.85646 -91.36378 39081 ft 409 kts 196°
2026-05-06 18:05 37.80004 -91.36131 39084 ft 403 kts 196°
2026-05-06 18:06 37.74510 -91.35899 39080 ft 404 kts 196°
2026-05-06 18:06 37.68839 -91.35664 39086 ft 406 kts 196°
2026-05-06 18:07 37.63221 -91.35425 39069 ft 408 kts 196°
2026-05-06 18:07 37.57727 -91.35190 39064 ft 406 kts 196°
2026-05-06 18:08 37.52085 -91.34954 39054 ft 409 kts 196°
2026-05-06 18:08 37.46411 -91.34712 39035 ft 407 kts 196°
2026-05-06 18:09 37.40738 -91.34474 39035 ft 409 kts 197°
2026-05-06 18:09 37.35035 -91.34237 39034 ft 411 kts 197°
2026-05-06 18:10 37.29373 -91.33990 39021 ft 403 kts 197°
2026-05-06 18:10 37.23774 -91.33759 39040 ft 405 kts 197°
2026-05-06 18:11 37.18119 -91.33527 39028 ft 409 kts 197°
2026-05-06 18:11 37.12407 -91.33289 39025 ft 410 kts 197°
2026-05-06 18:12 37.06703 -91.33049 39039 ft 411 kts 197°
2026-05-06 18:12 37.00971 -91.32810 39032 ft 412 kts 197°
2026-05-06 18:13 36.95259 -91.32568 39022 ft 409 kts 196°
2026-05-06 18:13 36.89566 -91.32336 39034 ft 411 kts 196°
2026-05-06 18:14 36.83828 -91.32096 39031 ft 411 kts 196°
2026-05-06 18:14 36.78098 -91.31859 39041 ft 411 kts 196°
2026-05-06 18:15 36.72934 -91.31645 39035 ft 413 kts 197°
2026-05-06 18:15 36.67245 -91.31408 39027 ft 411 kts 196°
2026-05-06 18:16 36.64378 -91.31295 38862 ft 418 kts 196°
2026-05-06 18:16 36.61435 -91.31178 38428 ft 420 kts 196°
2026-05-06 18:16 36.58534 -91.31053 38010 ft 418 kts 196°
2026-05-06 18:16 36.56122 -91.30951 37660 ft 415 kts 195°
2026-05-06 18:17 36.53258 -91.30830 37240 ft 412 kts 196°
2026-05-06 18:17 36.50520 -91.30718 36844 ft 410 kts 195°
2026-05-06 18:17 36.47591 -91.30598 36408 ft 411 kts 195°
2026-05-06 18:17 36.44711 -91.30484 35991 ft 415 kts 195°
2026-05-06 18:18 36.41846 -91.30367 35575 ft 415 kts 195°
2026-05-06 18:18 36.38960 -91.30248 35155 ft 414 kts 194°
2026-05-06 18:18 36.36109 -91.30128 34730 ft 412 kts 195°
2026-05-06 18:18 36.33220 -91.30015 34310 ft 417 kts 194°
2026-05-06 18:19 36.30308 -91.29897 33884 ft 419 kts 194°
2026-05-06 18:19 36.27423 -91.29777 33463 ft 416 kts 194°
2026-05-06 18:19 36.24515 -91.29656 33066 ft 416 kts 194°
2026-05-06 18:19 36.21602 -91.29536 32677 ft 422 kts 192°
2026-05-06 18:20 36.18650 -91.29078 32295 ft 443 kts 183°
2026-05-06 18:20 36.15603 -91.27962 31921 ft 462 kts 174°
2026-05-06 18:20 36.12633 -91.26253 31531 ft 475 kts 168°
2026-05-06 18:20 36.09710 -91.24423 31049 ft 471 kts 168°
2026-05-06 18:21 36.06807 -91.22634 30534 ft 463 kts 168°
2026-05-06 18:21 36.03980 -91.20899 30018 ft 452 kts 168°
2026-05-06 18:21 36.01165 -91.19185 29490 ft 443 kts 168°
2026-05-06 18:21 35.98421 -91.17523 28974 ft 439 kts 168°
2026-05-06 18:22 35.95702 -91.15884 28469 ft 440 kts 168°
2026-05-06 18:22 35.92950 -91.14223 27947 ft 437 kts 168°
2026-05-06 18:22 35.90231 -91.12585 27438 ft 437 kts 168°
2026-05-06 18:22 35.87501 -91.10941 26944 ft 432 kts 167°
2026-05-06 18:23 35.84835 -91.09331 26438 ft 425 kts 167°
2026-05-06 18:23 35.82184 -91.07741 25938 ft 425 kts 167°
2026-05-06 18:23 35.79637 -91.06216 25458 ft 420 kts 167°
2026-05-06 18:23 35.77036 -91.04653 24949 ft 407 kts 167°
2026-05-06 18:24 35.74473 -91.03119 24438 ft 397 kts 167°
2026-05-06 18:24 35.72000 -91.01644 23954 ft 394 kts 167°
2026-05-06 18:24 35.69534 -91.00181 23474 ft 395 kts 167°
2026-05-06 18:24 35.67081 -90.98721 22994 ft 393 kts 167°
2026-05-06 18:25 35.64972 -90.97465 22585 ft 393 kts 167°
2026-05-06 18:25 35.62494 -90.95989 22100 ft 390 kts 167°
2026-05-06 18:25 35.60067 -90.94546 21626 ft 389 kts 167°
2026-05-06 18:25 35.57641 -90.93104 21153 ft 386 kts 167°
2026-05-06 18:26 35.55239 -90.91674 20675 ft 382 kts 167°
2026-05-06 18:26 35.52867 -90.90218 20195 ft 384 kts 162°
2026-05-06 18:26 35.50699 -90.88195 19746 ft 406 kts 146°
2026-05-06 18:26 35.48908 -90.85432 19297 ft 424 kts 130°
2026-05-06 18:27 35.47597 -90.82134 18840 ft 433 kts 122°
2026-05-06 18:27 35.46407 -90.78780 18376 ft 427 kts 123°
2026-05-06 18:27 35.45199 -90.75505 17901 ft 419 kts 123°
2026-05-06 18:27 35.44007 -90.72317 17433 ft 414 kts 123°
2026-05-06 18:28 35.42795 -90.69105 16960 ft 410 kts 123°
2026-05-06 18:28 35.41605 -90.65971 16497 ft 405 kts 123°
2026-05-06 18:28 35.40433 -90.62899 16034 ft 400 kts 123°
2026-05-06 18:28 35.39265 -90.59841 15561 ft 392 kts 123°
2026-05-06 18:29 35.38110 -90.56825 15084 ft 386 kts 123°
2026-05-06 18:29 35.36983 -90.53890 14620 ft 385 kts 122°
2026-05-06 18:29 35.35848 -90.50938 14149 ft 382 kts 122°
2026-05-06 18:29 35.34683 -90.48055 13671 ft 370 kts 129°
2026-05-06 18:30 35.33191 -90.45586 13198 ft 357 kts 137°
2026-05-06 18:30 35.31619 -90.43233 12727 ft 361 kts 136°
2026-05-06 18:30 35.30043 -90.40867 12249 ft 359 kts 136°
2026-05-06 18:30 35.28466 -90.38494 11759 ft 354 kts 135°
2026-05-06 18:31 35.26938 -90.36196 11354 ft 347 kts 135°
2026-05-06 18:31 35.25439 -90.33946 11086 ft 336 kts 136°
2026-05-06 18:31 35.23991 -90.31774 10829 ft 325 kts 136°
2026-05-06 18:31 35.22584 -90.29668 10569 ft 312 kts 136°
2026-05-06 18:32 35.21345 -90.27818 10342 ft 309 kts 135°
2026-05-06 18:32 35.19900 -90.25670 10088 ft 316 kts 135°
2026-05-06 18:32 35.18503 -90.23589 9841 ft 317 kts 135°
2026-05-06 18:32 35.17274 -90.21754 9628 ft 314 kts 135°
2026-05-06 18:33 35.15906 -90.19713 9387 ft 311 kts 135°
2026-05-06 18:33 35.14539 -90.17677 9140 ft 311 kts 135°
2026-05-06 18:33 35.13157 -90.15623 8893 ft 311 kts 134°
2026-05-06 18:33 35.11795 -90.13595 8643 ft 307 kts 135°
2026-05-06 18:34 35.10226 -90.11949 8406 ft 289 kts 160°
2026-05-06 18:34 35.08386 -90.11306 8188 ft 265 kts 182°
2026-05-06 18:34 35.06580 -90.11186 7939 ft 256 kts 185°
2026-05-06 18:34 35.04821 -90.11114 7684 ft 249 kts 186°
2026-05-06 18:35 35.03112 -90.11088 7361 ft 246 kts 187°
2026-05-06 18:35 35.01393 -90.11036 6983 ft 247 kts 185°
2026-05-06 18:35 34.99665 -90.10954 6602 ft 246 kts 185°
2026-05-06 18:35 34.97958 -90.10886 6224 ft 246 kts 185°
2026-05-06 18:36 34.96254 -90.10824 5847 ft 246 kts 184°
2026-05-06 18:36 34.94542 -90.10764 5466 ft 246 kts 184°
2026-05-06 18:36 34.92827 -90.10704 5092 ft 246 kts 182°
2026-05-06 18:36 34.91110 -90.10645 4714 ft 246 kts 182°
2026-05-06 18:37 34.89403 -90.10587 4335 ft 246 kts 180°
2026-05-06 18:37 34.88266 -90.10360 4061 ft 247 kts 161°
2026-05-06 18:37 34.86579 -90.08675 3635 ft 236 kts 117°
2026-05-06 18:37 34.86202 -90.07092 3365 ft 226 kts 91°
2026-05-06 18:38 34.86171 -90.05209 3024 ft 219 kts 88°
2026-05-06 18:38 34.86161 -90.03391 2758 ft 210 kts 88°
2026-05-06 18:38 34.86256 -90.01687 2491 ft 198 kts 68°
2026-05-06 18:38 34.87023 -90.00414 2325 ft 178 kts 33°
2026-05-06 18:39 34.87717 -89.99908 2190 ft 171 kts 27°
2026-05-06 18:39 34.88789 -89.99204 1985 ft 167 kts 27°
2026-05-06 18:39 34.89814 -89.98578 1968 ft 166 kts 17°
2026-05-06 18:40 34.92196 -89.98495 1969 ft 172 kts
2026-05-06 18:40 34.93395 -89.98507 1972 ft 168 kts
2026-05-06 18:40 34.94491 -89.98528 1921 ft 144 kts
2026-05-06 18:40 34.95423 -89.98547 1730 ft 126 kts
2026-05-06 18:41 34.96252 -89.98563 1539 ft 116 kts
2026-05-06 18:41 34.97093 -89.98575 1443 ft 121 kts
2026-05-06 18:41 34.97961 -89.98578 1341 ft 131 kts 359°
2026-05-06 18:41 34.98886 -89.98611 1194 ft 133 kts
2026-05-06 18:42 34.99789 -89.98637 959 ft 126 kts 360°
2026-05-06 18:42 35.00650 -89.98656 722 ft 121 kts
2026-05-06 18:42 35.01492 -89.98666 552 ft 121 kts
2026-05-06 18:42 35.02338 -89.98688 404 ft 120 kts
2026-05-06 18:43 35.03125 -89.98704 347 ft 88 kts 359°
2026-05-06 18:43 35.03572 -89.98712 347 ft 48 kts 359°
2026-05-06 18:43 35.03845 -89.98717 347 ft 31 kts 358°
2026-05-06 18:43 35.04011 -89.98723 347 ft 18 kts 359°
2026-05-06 18:44 35.04139 -89.98724 347 ft 19 kts 359°
2026-05-06 18:44 35.04285 -89.98727 347 ft 23 kts 359°
2026-05-06 18:44 35.04464 -89.98721 347 ft 25 kts
2026-05-06 18:44 35.04617 -89.98656 347 ft 21 kts 31°
2026-05-06 18:45 35.04746 -89.98602 347 ft 18 kts
2026-05-06 18:45 35.04867 -89.98607 347 ft 16 kts 359°
2026-05-06 18:45 35.04981 -89.98595 347 ft 17 kts 18°
2026-05-06 18:45 35.05057 -89.98555 347 ft 18 kts 25°
2026-05-06 18:46 35.05216 -89.98509 347 ft 16 kts
2026-05-06 18:46 35.05329 -89.98508 347 ft 18 kts
2026-05-06 18:46 35.05473 -89.98508 347 ft 22 kts
2026-05-06 18:46 35.05624 -89.98506 347 ft 20 kts
2026-05-06 18:47 35.05758 -89.98505 347 ft 18 kts
2026-05-06 18:47 35.05876 -89.98505 347 ft 15 kts 358°
2026-05-06 18:47 35.05975 -89.98512 347 ft 11 kts 360°
2026-05-06 18:47 35.06021 -89.98460 347 ft 8 kts 79°
2026-05-06 18:48 35.06021 -89.98395 347 ft 8 kts 92°
2026-05-06 18:48 35.06018 -89.98289 347 ft 17 kts 92°
2026-05-06 18:48 35.06014 -89.98130 347 ft 18 kts 92°
2026-05-06 18:48 35.06009 -89.97982 347 ft 15 kts 92°
2026-05-06 18:49 35.06005 -89.97855 347 ft 14 kts 91°
2026-05-06 18:49 35.05993 -89.97741 347 ft 14 kts 102°
2026-05-06 18:49 35.05969 -89.97618 347 ft 14 kts 103°
2026-05-06 18:49 35.06001 -89.97543 347 ft 10 kts 14°
2026-05-06 18:50 35.06087 -89.97540 347 ft 14 kts 359°
2026-05-06 18:50 35.06197 -89.97541 347 ft 16 kts 360°
2026-05-06 18:50 35.06309 -89.97542 347 ft 15 kts
2026-05-06 18:50 35.06376 -89.97511 347 ft 8 kts 62°
2026-05-06 18:51 35.06384 -89.97451 347 ft 6 kts 90°
2026-05-06 18:51 35.06385 -89.97379 347 ft 10 kts 90°
2026-05-06 18:51 35.06393 -89.97316 347 ft 4 kts 39°
2026-05-06 18:51 35.06422 -89.97309 347 ft 4 kts
2026-05-06 18:52 35.06442 -89.97308 347 ft 0 kts 358°